Leuchars, United Kingdom

4:10 AM GMT on January 18, 2017 (GMT +0000)
Leuchars Air Base

Weather History for EGQL - August, 2013

Change the Weather History Date:

Saturday, August 31, 2013

  Actual Average Record
Temperature  
Mean Temperature 53 °F -  
Max Temperature 63 °F 59 °F 69 °F (1999)
Min Temperature 43 °F 47 °F 38 °F (2012)
Degree Days  
Heating Degree Days 12    
Growing Degree Days 3 (Base 50)    
Moisture  
Dew Point 43 °F    
Average Humidity 65    
Maximum Humidity 87    
Minimum Humidity 34    
Precipitation  
Precipitation 0.00 in - - ()
Sea Level Pressure  
Sea Level Pressure 30.15 in    
Wind  
Wind Speed 13 mph ()    
Max Wind Speed 24 mph    
Max Gust Speed 33 mph    
Visibility 8.3 miles    
Events      
Averages and records for this station are not official NWS values.
T = Trace of Precipitation, MM = Missing Value Source: Averaged Metar Reports

Daily Weather History Graph

Daily Weather History Graph

Search for Another Location

Airport or City:

Trip Planner

Search our weather history database for the weather conditions in past years. The results will help you decide how hot, cold, wet, or windy it might be!

Date:

Astronomy

Aug. 31, 2013 Rise Set
Actual Time 6:13 AM BST 8:09 PM BST
Civil Twilight 5:33 AM BST 8:48 PM BST
Nautical Twilight 4:42 AM BST 9:39 PM BST
Astronomical Twilight 3:42 AM BST 10:38 PM BST
Moon 12:55 AM BST (8/31) 5:28 PM BST (8/31)
Length of Visible Light 15h 15m
Length of Day
13h 55m
Waning Crescent, 23% of the Moon is Illuminated
Aug 31
Waning Crescent
Sep 5
New
Sep 12
First Quarter
Sep 19
Full
Sep 27
Last Quarter

Hourly Weather History & Observations

Time (BST) Temp. Windchill Dew Point Humidity Pressure Visibility Wind Dir Wind Speed Gust Speed Precip Events Conditions
12:50 AM 47 °F - 40 °F 69% 30.05 in 31 mi WSW 11.5 mph - -   Scattered Clouds
12:50 AM 46.4 °F 41.1 °F 39.2 °F 76% 30.04 in 6.2 mi WSW 11.5 mph - N/A   Partly Cloudy
1:50 AM 46.4 °F 41.1 °F 41.0 °F 81% 30.06 in 6.2 mi WSW 11.5 mph - N/A   Partly Cloudy
2:50 AM 46.4 °F 40.7 °F 41.0 °F 81% 30.06 in 6.2 mi West 12.7 mph - N/A   Partly Cloudy
3:50 AM 44.6 °F 39.7 °F 41.0 °F 87% 30.06 in 6.2 mi WSW 9.2 mph - N/A   Partly Cloudy
4:50 AM 46.4 °F 40.7 °F 42.8 °F 87% 30.09 in - West 12.7 mph - N/A   Clear
5:50 AM 48.2 °F - 44.6 °F 87% 30.09 in - SW 9.2 mph - N/A   Clear
6:50 AM 48 °F - 44 °F 81% 30.12 in 19 mi WSW 6.9 mph - -   Scattered Clouds
6:50 AM 48.2 °F - 44.6 °F 87% 30.12 in - WSW 6.9 mph - N/A   Clear
7:50 AM 48.2 °F - 44.6 °F 87% 30.12 in 6.2 mi WSW 8.1 mph - N/A   Partly Cloudy
8:50 AM 53.6 °F - 44.6 °F 72% 30.12 in - WSW 15.0 mph - N/A   Clear
9:50 AM 57 °F - 44 °F 53% 30.15 in 31 mi WSW 15.0 mph - -   Scattered Clouds
9:50 AM 57.2 °F - 44.6 °F 63% 30.12 in 6.2 mi WSW 15.0 mph - N/A   Partly Cloudy
10:50 AM 59.0 °F - 42.8 °F 55% 30.15 in 6.2 mi West 16.1 mph - N/A   Scattered Clouds
11:50 AM 60.8 °F - 44.6 °F 55% 30.15 in 6.2 mi West 18.4 mph - N/A   Mostly Cloudy
12:50 PM 62 °F - 41 °F 35% 30.17 in 28 mi WNW 17.3 mph - -   Partly Cloudy
12:50 PM 62.6 °F - 41.0 °F 45% 30.15 in 6.2 mi WNW 17.3 mph - N/A   Scattered Clouds
1:50 PM 62.6 °F - 42.8 °F 48% 30.18 in 6.2 mi West 18.4 mph - N/A   Mostly Cloudy
2:50 PM 62.6 °F - 41.0 °F 45% 30.18 in - West 21.9 mph - N/A   Clear
3:50 PM 63 °F - 42 °F 34% 30.19 in 25 mi WNW 21.9 mph - -   Scattered Clouds
3:50 PM 62.6 °F - 41.0 °F 45% 30.18 in - WNW 21.9 mph 33.4 mph N/A   Clear
4:50 PM 60.8 °F - 41.0 °F 48% 30.18 in - WNW 24.2 mph - N/A   Clear
5:50 PM 60.8 °F - 42.8 °F 52% 30.21 in - West 24.2 mph - N/A   Clear
6:50 PM 59 °F - 43 °F 44% 30.22 in 22 mi West 13.8 mph - -   Scattered Clouds
6:50 PM 59.0 °F - 42.8 °F 55% 30.21 in - West 13.8 mph - N/A   Clear
7:50 PM 55.4 °F - 42.8 °F 63% 30.21 in - West 16.1 mph - N/A   Clear
8:50 PM 53.6 °F - 44.6 °F 72% 30.21 in - West 16.1 mph - N/A   Clear
9:50 PM 53 °F - 46 °F 70% 30.23 in 19 mi West 15.0 mph - -   Scattered Clouds
9:50 PM 53.6 °F - 46.4 °F 77% 30.21 in - West 15.0 mph - N/A   Clear
10:50 PM 53.6 °F - 46.4 °F 77% 30.21 in - WSW 19.6 mph - N/A   Clear
11:50 PM 53.6 °F - 46.4 °F 77% 30.21 in - West 19.6 mph - N/A   Clear